Weather History for KUTA - November, 2012

Change the Weather History Date:

Tuesday, November 27, 2012

  Actual Average (KMEM) Record (KMEM)
Temperature  
Mean Temperature 38 °F 49 °F  
Max Temperature 44 °F 58 °F 79 °F (1990)
Min Temperature 32 °F 40 °F 20 °F (1938)
Degree Days  
Heating Degree Days 27 16  
Month to date heating degree days 317  
Since 1 July heating degree days 448  
Cooling Degree Days 0 0  
Month to date cooling degree days 11  
Year to date cooling degree days 2254  
Moisture  
Dew Point 34 °F    
Average Humidity 84    
Maximum Humidity 100    
Minimum Humidity 66    
Precipitation  
Precipitation 0.00 in 0.21 in 3.72 in (1896)
Month to date precipitation 4.85  
Year to date precipitation 47.30  
Snow  
Snow 0.00 in 0.00 in T in (1992)
Month to date snowfall 0.0  
Since 1 July snowfall 0.0  
Since 1 September snowfall 0.0  
Snow Depth -    
Sea Level Pressure  
Sea Level Pressure 30.34 in    
Wind  
Wind Speed 14 mph (North)    
Max Wind Speed 21 mph    
Max Gust Speed 26 mph    
Visibility 9 miles    
Events      
T = Trace of Precipitation, MM = Missing Value Source: NWS Daily Summary

Daily Weather History Graph

Daily Weather History Graph

Search for Another Location

Airport or City:

Trip Planner

Search our weather history database for the weather conditions in past years. The results will help you decide how hot, cold, wet, or windy it might be!

Date:

Astronomy

Nov. 27, 2012 Rise Set
Actual Time 6:47 AM CST 4:51 PM CST
Civil Twilight 6:19 AM CST 5:18 PM CST
Nautical Twilight 5:48 AM CST 5:49 PM CST
Astronomical Twilight 5:18 AM CST 6:19 PM CST
Moon 4:22 PM CST (11/27) 5:53 AM CST (11/27)
Length of Visible Light 10h 58m
Length of Day
10h 04m
Waxing Gibbous, 99% of the Moon is Illuminated
Nov 27
Waxing Gibbous
Nov 28
Full
Dec 6
Last Quarter
Dec 13
New
Dec 19
First Quarter

Hourly Weather History & Observations

Time (CST) Temp. Windchill Dew Point Humidity Pressure Visibility Wind Dir Wind Speed Gust Speed Precip Events Conditions
12:15 AM 41.0 °F 32.5 °F 37.4 °F 87% 30.23 in 10.0 mi North 17.3 mph - N/A   Overcast
12:35 AM 41.0 °F 31.6 °F 37.4 °F 87% 30.23 in 10.0 mi North 20.7 mph - N/A   Overcast
12:55 AM 41.0 °F 31.9 °F 37.4 °F 87% 30.21 in 10.0 mi North 19.6 mph 24.2 mph N/A   Overcast
1:15 AM 41.0 °F 31.6 °F 37.4 °F 87% 30.22 in 7.0 mi North 20.7 mph 26.5 mph N/A   Overcast
1:55 AM 41.0 °F 32.2 °F 37.4 °F 87% 30.24 in 7.0 mi North 18.4 mph 24.2 mph N/A   Overcast
2:15 AM 41.0 °F 32.8 °F 37.4 °F 87% 30.25 in 7.0 mi North 16.1 mph 21.9 mph N/A   Overcast
2:35 AM 41.0 °F 32.8 °F 37.4 °F 87% 30.25 in 7.0 mi North 16.1 mph - N/A   Overcast
2:55 AM 41.0 °F 32.8 °F 37.4 °F 87% 30.25 in 7.0 mi North 16.1 mph - N/A   Overcast
4:15 AM 41.0 °F 33.1 °F 35.6 °F 81% 30.26 in 10.0 mi North 15.0 mph 18.4 mph N/A   Overcast
4:35 AM 39.2 °F 30.5 °F 35.6 °F 87% 30.26 in 10.0 mi North 16.1 mph - N/A   Overcast
4:55 AM 37.4 °F 28.2 °F 33.8 °F 87% 30.26 in 10.0 mi North 16.1 mph - N/A   Overcast
5:15 AM 37.4 °F 28.5 °F 33.8 °F 87% 30.27 in 10.0 mi North 15.0 mph - N/A   Overcast
5:35 AM 37.4 °F 29.3 °F 33.8 °F 87% 30.28 in 10.0 mi North 12.7 mph - N/A   Overcast
5:55 AM 37.4 °F 29.3 °F 33.8 °F 87% 30.28 in 10.0 mi North 12.7 mph - N/A   Overcast
6:15 AM 37.4 °F 29.3 °F 33.8 °F 87% 30.29 in 10.0 mi North 12.7 mph - N/A   Overcast
6:35 AM 37.4 °F 29.3 °F 32.0 °F 81% 30.31 in 10.0 mi North 12.7 mph - N/A   Overcast
6:55 AM 35.6 °F 27.1 °F 32.0 °F 87% 30.33 in 10.0 mi North 12.7 mph - N/A   Mostly Cloudy
7:15 AM 35.6 °F 26.6 °F 32.0 °F 87% 30.33 in 7.0 mi North 13.8 mph - N/A   Clear
7:35 AM 35.6 °F 25.9 °F 32.0 °F 87% 30.33 in 7.0 mi North 16.1 mph - N/A   Clear
7:55 AM 35.6 °F 27.1 °F 32.0 °F 87% 30.34 in 7.0 mi North 12.7 mph - N/A   Clear
8:15 AM 35.6 °F 26.2 °F 32.0 °F 87% 30.36 in 7.0 mi North 15.0 mph 18.4 mph N/A   Clear
8:35 AM 35.6 °F 26.2 °F 32.0 °F 87% 30.37 in 7.0 mi North 15.0 mph - N/A   Clear
8:55 AM 35.6 °F 25.9 °F 32.0 °F 87% 30.38 in 7.0 mi North 16.1 mph - N/A   Clear
9:35 AM 35.6 °F 27.1 °F 32.0 °F 87% 30.38 in 7.0 mi North 12.7 mph - N/A   Scattered Clouds
9:55 AM 35.6 °F 25.9 °F 32.0 °F 87% 30.40 in 7.0 mi North 16.1 mph - N/A   Scattered Clouds
10:15 AM 37.4 °F 28.5 °F 32.0 °F 81% 30.41 in 7.0 mi North 15.0 mph - N/A   Scattered Clouds
10:35 AM 37.4 °F 28.5 °F 32.0 °F 81% 30.40 in 10.0 mi NNW 15.0 mph - N/A   Clear
10:55 AM 37.4 °F 29.3 °F 32.0 °F 81% 30.39 in 7.0 mi North 12.7 mph - N/A   Clear
11:15 AM 37.4 °F 28.9 °F 32.0 °F 81% 30.39 in 7.0 mi NNW 13.8 mph - N/A   Clear
11:35 AM 39.2 °F 31.6 °F 32.0 °F 75% 30.38 in 7.0 mi North 12.7 mph - N/A   Clear
11:55 AM 41.0 °F 33.5 °F 33.8 °F 76% 30.37 in 10.0 mi NNW 13.8 mph - N/A   Clear
12:15 PM 41.0 °F 33.5 °F 33.8 °F 76% 30.37 in 10.0 mi North 13.8 mph - N/A   Scattered Clouds
12:35 PM 41.0 °F 33.5 °F 33.8 °F 76% 30.36 in 10.0 mi NNW 13.8 mph 19.6 mph N/A   Scattered Clouds
12:55 PM 42.8 °F 35.8 °F 35.6 °F 76% 30.36 in 10.0 mi North 13.8 mph - N/A   Clear
1:15 PM 42.8 °F 35.8 °F 35.6 °F 76% 30.36 in 10.0 mi North 13.8 mph - N/A   Clear
1:35 PM 44.6 °F 37.8 °F 35.6 °F 71% 30.35 in 10.0 mi North 15.0 mph - N/A   Clear
1:55 PM 44.6 °F 38.4 °F 35.6 °F 71% 30.34 in 10.0 mi North 12.7 mph - N/A   Clear
2:15 PM 44.6 °F 37.4 °F 35.6 °F 71% 30.34 in 10.0 mi North 16.1 mph - N/A   Clear
2:35 PM 44.6 °F 37.2 °F 35.6 °F 71% 30.34 in 10.0 mi North 17.3 mph - N/A   Clear
2:55 PM 44.6 °F 37.4 °F 35.6 °F 71% 30.35 in 10.0 mi North 16.1 mph - N/A   Clear
3:15 PM 44.6 °F 38.1 °F 35.6 °F 71% 30.34 in 10.0 mi North 13.8 mph - N/A   Clear
3:55 PM 44.6 °F 38.1 °F 33.8 °F 66% 30.35 in 10.0 mi North 13.8 mph 17.3 mph N/A   Clear
4:15 PM 42.8 °F 36.6 °F 33.8 °F 70% 30.36 in 10.0 mi North 11.5 mph - N/A   Clear
4:35 PM 42.8 °F 37.0 °F 33.8 °F 70% 30.36 in 10.0 mi North 10.4 mph - N/A   Clear
4:55 PM 41.0 °F 36.4 °F 33.8 °F 76% 30.36 in 10.0 mi North 6.9 mph - N/A   Clear
5:15 PM 37.4 °F 32.1 °F 33.8 °F 87% 30.35 in 10.0 mi North 6.9 mph - N/A   Clear
5:35 PM 37.4 °F 32.1 °F 32.0 °F 81% 30.36 in 10.0 mi North 6.9 mph - N/A   Clear
5:55 PM 35.6 °F 29.9 °F 32.0 °F 87% 30.36 in 10.0 mi North 6.9 mph - N/A   Clear
6:15 PM 35.6 °F 29.9 °F 32.0 °F 87% 30.36 in 10.0 mi North 6.9 mph - N/A   Clear
6:55 PM 35.6 °F 30.7 °F 32.0 °F 87% 30.37 in 10.0 mi North 5.8 mph - N/A   Clear
7:15 PM 35.6 °F 30.7 °F 32.0 °F 87% 30.37 in 10.0 mi North 5.8 mph - N/A   Clear
7:35 PM 33.8 °F 28.6 °F 32.0 °F 93% 30.37 in 10.0 mi North 5.8 mph - N/A   Clear
7:55 PM 33.8 °F 28.6 °F 32.0 °F 93% 30.38 in 10.0 mi North 5.8 mph - N/A   Clear
8:15 PM 33.8 °F 28.6 °F 32.0 °F 93% 30.38 in 10.0 mi North 5.8 mph - N/A   Clear
8:35 PM 33.8 °F 29.6 °F 32.0 °F 93% 30.38 in 10.0 mi North 4.6 mph - N/A   Clear
8:55 PM 33.8 °F 29.6 °F 32.0 °F 93% 30.38 in 10.0 mi North 4.6 mph - N/A   Clear
9:15 PM 33.8 °F - 32.0 °F 93% 30.37 in 10.0 mi Calm Calm - N/A   Clear
9:35 PM 32.0 °F 27.5 °F 32.0 °F 100% 30.38 in 10.0 mi NNW 4.6 mph - N/A   Clear
9:55 PM 32.0 °F 28.7 °F 30.2 °F 93% 30.39 in 10.0 mi North 3.5 mph - N/A   Clear
10:15 PM 33.8 °F - 32.0 °F 93% 30.40 in 10.0 mi Calm Calm - N/A   Clear
10:35 PM 33.8 °F - 32.0 °F 93% 30.40 in 10.0 mi Calm Calm - N/A   Clear
10:55 PM 32.0 °F - 30.2 °F 93% 30.40 in 10.0 mi Calm Calm - N/A   Clear
11:15 PM 33.8 °F - 32.0 °F 93% 30.41 in 7.0 mi Calm Calm - N/A   Clear
11:35 PM 33.8 °F - 32.0 °F 93% 30.41 in 7.0 mi Calm Calm - N/A   Clear
11:55 PM 32.0 °F - 32.0 °F 100% 30.41 in 7.0 mi Calm Calm - N/A   Clear